This is the latest recevied weather packets stored in our database for station/object PU5BHV. If no packets are shown the sender has not sent any weather packets the latest 10 day(s).
| Time | Temp. | Humidity | Pressure | Rain* | Wind** | Luminosity | Snow |
|---|---|---|---|---|---|---|---|
| 1777994131 | 27.22° C | 69% | 1020.2 hPa | 0 mm | - | 624 W/m² | - |
| 1777993829 | 27.22° C | 70% | 1020.2 hPa | 0 mm | - | 466 W/m² | - |
| 1777993525 | 26.67° C | 71% | 1020.2 hPa | 0 mm | - | 596 W/m² | - |
| 1777993221 | 27.22° C | 69% | 1020.2 hPa | 0 mm | - | 595 W/m² | - |
| 1777992917 | 26.67° C | 71% | 1020.4 hPa | 0 mm | - | 603 W/m² | - |
| 1777992616 | 26.67° C | 69% | 1020.7 hPa | 0 mm | - | 648 W/m² | - |
| 1777992313 | 26.67° C | 71% | 1020.6 hPa | 0 mm | - | 684 W/m² | - |
| 1777992010 | 26.67° C | 70% | 1020.6 hPa | 0 mm | - | 629 W/m² | - |
| 1777991709 | 26.67° C | 72% | 1020.7 hPa | 0 mm | - | 641 W/m² | - |
| 1777991405 | 26.67° C | 73% | 1020.8 hPa | 0 mm | - | 655 W/m² | - |
| 1777991102 | 26.11° C | 71% | 1020.9 hPa | 0 mm | - | 628 W/m² | - |
| 1777990799 | 25.56° C | 73% | 1021.1 hPa | 0 mm | - | 641 W/m² | - |
| 1777990496 | 25.56° C | 72% | 1020.9 hPa | 0 mm | - | 701 W/m² | - |
| 1777989890 | 25° C | 75% | 1021.3 hPa | 0 mm | - | 786 W/m² | - |
| 1777989586 | 25° C | 75% | 1021.1 hPa | 0 mm | - | 698 W/m² | - |
| 1777989283 | 24.44° C | 77% | 1021.1 hPa | 0 mm | - | 724 W/m² | - |
| 1777988979 | 24.44° C | 74% | 1021.4 hPa | 0 mm | - | 292 W/m² | - |
| 1777988676 | 25.56° C | 75% | 1021.3 hPa | 0 mm | - | 252 W/m² | - |
| 1777988372 | 25° C | 74% | 1021.3 hPa | 0 mm | - | 746 W/m² | - |
| 1777988070 | 23.89° C | 76% | 1021.3 hPa | 0 mm | - | 685 W/m² | - |
| 1777987765 | 23.89° C | 77% | 1021.5 hPa | 0 mm | - | 617 W/m² | - |
| 1777987463 | 23.89° C | 78% | 1021.2 hPa | 0 mm | - | 213 W/m² | - |
| 1777987160 | 23.89° C | 77% | 1021.3 hPa | 0 mm | - | 240 W/m² | - |
| 1777986857 | 23.89° C | 77% | 1021.6 hPa | 0 mm | - | 701 W/m² | - |
| 1777986555 | 23.33° C | 78% | 1021.4 hPa | 0 mm | - | 686 W/m² | - |
* Rain latest hour (hover to see other rain measurements)
** Current wind speed in m/s (hover to see current wind gust speed)